Regional Weather Roundup
Issued by NWS

Home | Current Version | Previous Version | Graphics & Text | Print | Product List | Glossary On
Versions: 1 2 3 4 5 6 7 8 9 10 11 12 13 14 15 16 17 18 19 20 21 22 23 24 25 26 27 28 29 30 31 32 33 34 35 36 37 38 39 40 41 42 43 44 45 46 47 48 49 50
000
ASUS45 KABQ 222210
RWRNM
NEW MEXICO REGIONAL WEATHER ROUNDUP
NATIONAL WEATHER SERVICE ALBUQUERQUE NM
400 PM MDT WED MAR 22 2017

NOTE: "FAIR" MEANS FEW OR NO CLOUDS BELOW 12,000 FEET AGL WITH NO
       SIGNIFICANT WEATHER OR OBSTRUCTIONS TO VISION.

      THIS PRODUCT IS RELEASED AS TWO VERSIONS.  ONE VERSION NEAR
      THE TOP OF THE HOUR CONTAINING PRELIMINARY DATA FROM ALBUQUERQUE
      AND OTHER STATIONS.  A FINAL VERSION WITH ADDITIONAL DATA IS
      ISSUED ABOUT 10 MINUTES AFTER THE HOUR.

NMZ501-503-504-510>518-222300-
NORTHWEST PLATEAU/NORTHCENTRAL MOUNTAINS

CITY           SKY/WX    TMP DP  RH WIND       PRES   REMARKS
FARMINGTON     FAIR      71  10   9 SW14G21   29.93F
LOS ALAMOS     FAIR      69  15  13 S18       30.07F
SANTA FE       FAIR      76  16  10 W16G24    30.01F
TAOS             N/A     72  21  15 SW18G30   30.04F
ANGEL FIRE     FAIR      66  13  13 SW16G28   30.13F

$$
NMZ402-403-502-505>509-222300-
WESTCENTRAL MOUNTAINS/SOUTHWEST MOUNTAINS

CITY           SKY/WX    TMP DP  RH WIND       PRES   REMARKS
GALLUP         FAIR      70  23  17 W23G30    30.01F
GRANTS         FAIR      76  13   9 S15G26    29.99F
SILVER CITY    FAIR      80  19  10 SW24G36   30.03F

$$
NMZ407-409-411-412-222300-
SOUTHERN DESERTS

CITY           SKY/WX    TMP DP  RH WIND       PRES   REMARKS
DEMING         FAIR      86  16   7 SW16G28   29.96F
LAS CRUCES     FAIR      87  12   6 SW16      29.98F
HOLLOMAN AFB   SUNNY     87  13   6 S18G28    29.97F
ALAMOGORDO     FAIR      88  18   7 SW20G28   29.96F
T OR C         FAIR      84  13   7 S23G29    29.95F

$$
NMZ519>523-222300-
CENTRAL VALLEYS/CENTRAL HIGHLANDS

CITY           SKY/WX    TMP DP  RH WIND       PRES   REMARKS
ALBUQUERQUE    PTSUNNY   79  13   8 SW12      29.95F
DOUBLE EAGLE   PTSUNNY   79  21  11 S12G24    29.98F
MORIARTY ARPT  FAIR      82  14   8 S31G40    30.02F
CLINES CORNERS FAIR      74   9   8 SW30G38   30.08F
BELEN          FAIR      82  20   9 S17G32    29.93F
SOCORRO        FAIR      84  12   6 S24G43    29.92F

$$
NMZ524>526-539-540-222300-
SOUTHCENTRAL MOUNTAINS

CITY           SKY/WX    TMP DP  RH WIND       PRES   REMARKS
RUIDOSO        FAIR      75  12   9 SW22G28   30.13F

$$
NMZ527>531-222300-
NORTHEAST HIGHLANDS/NORTHEAST PLAINS

CITY           SKY/WX    TMP DP  RH WIND       PRES   REMARKS
LAS VEGAS      FAIR      70  35  27 S29G38    30.04F
RATON          FAIR      74  31  20 S18G28    29.97F
CLAYTON        FAIR      70  44  39 S26G32    29.98F

$$
NMZ532>537-222300-
EASTCENTRAL PLAINS

CITY           SKY/WX    TMP DP  RH WIND       PRES   REMARKS
SANTA ROSA     FAIR      76  38  24 S14G23    29.99F
TUCUMCARI      FAIR      81  44  27 SE17G23   29.95F
CANNON AFB     FAIR      76  48  37 SE13G22   30.01F
CLOVIS AIRPORT FAIR      75  48  38 SE15G21   30.03F

$$
NMZ028-029-538-222300-
SOUTHEAST PLAINS

CITY           SKY/WX    TMP DP  RH WIND       PRES   REMARKS
ROSWELL        FAIR      85  43  22 SE17G26   29.95
ARTESIA        FAIR      84  46  26 SE15      29.95F
CARLSBAD       FAIR      86  49  27 E10       29.92F
HOBBS          SUNNY     81  50  34 E16       30.00F


$$



USA.gov is the U.S. government's official web portal to all federal, state and local government web resources and services.